Le nostre stazioni meteo in Italia

Pubblicità
Il mio iltempo24.it
Drumnadrochit, Gran Bretagna (99132): Temperatura & dewpoint: 15.04.2019 08:00:00 - 21.04.2019 08:00:00 (BST)Drumnadrochit, Gran Bretagna (99132): precipitazioni: 15.04.2019 08:00:00 - 21.04.2019 08:00:00 (BST)
Data & Tempo tt [°C] td [°C] rr [mm]
21.04.2019 08:00:00 - - -
21.04.2019 07:00:00 10,3 10,3 0,0
21.04.2019 06:00:00 9,9 9,9 0,0
21.04.2019 05:00:00 9,5 9,5 0,2
21.04.2019 04:00:00 9,6 9,6 0,0
21.04.2019 03:00:00 9,8 9,7 0,0
21.04.2019 02:00:00 9,7 9,6 0,6
21.04.2019 01:00:00 10,0 9,9 0,0
21.04.2019 00:00:00 9,9 9,7 0,0
20.04.2019 23:00:00 10,0 9,9 0,0
20.04.2019 22:00:00 10,3 10,1 0,0
20.04.2019 21:00:00 10,7 10,2 0,0
20.04.2019 20:00:00 12,2 11,8 0,4
20.04.2019 19:00:00 12,8 11,6 1,0
20.04.2019 18:00:00 13,8 12,5 2,0
20.04.2019 17:00:00 15,2 11,8 0,6
20.04.2019 16:00:00 17,4 10,6 0,0
20.04.2019 15:00:00 18,1 9,4 0,0
20.04.2019 14:00:00 18,6 10,2 0,0
20.04.2019 13:00:00 18,5 9,8 0,0
20.04.2019 12:00:00 18,6 9,8 0,0
20.04.2019 11:00:00 17,4 9,0 0,0
20.04.2019 10:00:00 16,1 9,8 0,0
20.04.2019 09:00:00 14,1 8,6 0,0
20.04.2019 08:00:00 12,6 7,3 0,0
20.04.2019 07:00:00 12,4 6,3 0,0
20.04.2019 06:00:00 12,1 6,2 0,0
20.04.2019 05:00:00 12,9 5,7 0,0
20.04.2019 04:00:00 11,2 5,8 0,0
20.04.2019 03:00:00 11,3 5,9 0,0
20.04.2019 02:00:00 13,3 5,4 0,0
20.04.2019 01:00:00 13,7 5,4 0,0
20.04.2019 00:00:00 8,7 5,6 0,0
19.04.2019 23:00:00 9,5 5,7 0,0
19.04.2019 22:00:00 11,1 6,2 0,0
19.04.2019 21:00:00 14,1 5,9 0,0
19.04.2019 20:00:00 17,7 5,0 0,0
19.04.2019 19:00:00 19,1 5,1 0,0
19.04.2019 18:00:00 20,0 6,5 0,0
19.04.2019 17:00:00 20,4 7,3 0,0
19.04.2019 16:00:00 21,0 6,3 0,0
19.04.2019 15:00:00 21,0 5,5 0,0
19.04.2019 14:00:00 20,3 7,6 0,0
19.04.2019 13:00:00 18,8 6,0 0,0
19.04.2019 12:00:00 15,8 6,6 0,0
19.04.2019 11:00:00 13,6 3,8 0,0
19.04.2019 10:00:00 12,7 6,1 0,0
19.04.2019 09:00:00 8,9 4,8 0,0
19.04.2019 08:00:00 7,3 4,8 0,0
19.04.2019 07:00:00 4,7 3,1 0,0
19.04.2019 06:00:00 3,7 2,6 0,0
19.04.2019 05:00:00 3,4 1,8 0,0
19.04.2019 04:00:00 4,5 3,1 0,0
19.04.2019 03:00:00 4,4 2,9 0,0
19.04.2019 02:00:00 4,7 2,9 0,0
19.04.2019 01:00:00 5,3 3,2 0,0
19.04.2019 00:00:00 6,4 4,8 0,0
18.04.2019 23:00:00 6,7 4,8 0,0
18.04.2019 22:00:00 8,5 4,8 0,0
18.04.2019 21:00:00 13,3 6,0 0,0
18.04.2019 20:00:00 16,0 5,4 0,0
18.04.2019 19:00:00 17,5 5,3 0,0
18.04.2019 18:00:00 17,7 5,7 0,0
18.04.2019 17:00:00 17,8 6,3 0,0
18.04.2019 16:00:00 17,7 6,3 0,0
18.04.2019 15:00:00 18,2 6,4 0,0
18.04.2019 14:00:00 17,2 6,7 0,0
18.04.2019 13:00:00 13,1 5,3 0,0
18.04.2019 12:00:00 10,8 4,9 0,0
18.04.2019 11:00:00 10,1 4,5 0,0
18.04.2019 10:00:00 7,9 3,2 0,0
18.04.2019 09:00:00 5,9 3,3 0,0
18.04.2019 08:00:00 3,9 2,8 0,0
18.04.2019 07:00:00 1,9 1,6 0,0
18.04.2019 06:00:00 1,2 0,7 0,0
18.04.2019 05:00:00 1,1 0,6 0,0
18.04.2019 04:00:00 1,4 0,9 0,0
18.04.2019 03:00:00 1,1 0,3 0,0
18.04.2019 02:00:00 1,6 0,0 0,0
18.04.2019 01:00:00 1,9 0,5 0,0
18.04.2019 00:00:00 3,7 1,7 0,0
17.04.2019 23:00:00 3,4 1,8 0,0
17.04.2019 22:00:00 4,8 2,2 0,0
17.04.2019 21:00:00 7,5 2,4 0,0
17.04.2019 20:00:00 11,1 2,8 0,0
17.04.2019 19:00:00 14,0 2,1 0,0
17.04.2019 18:00:00 14,8 1,8 0,0
17.04.2019 17:00:00 15,6 1,9 0,0
17.04.2019 16:00:00 15,6 1,6 0,0
17.04.2019 15:00:00 14,0 3,6 0,0
17.04.2019 14:00:00 12,4 2,8 0,0
17.04.2019 13:00:00 11,1 2,5 0,0
17.04.2019 12:00:00 9,3 3,8 0,0
17.04.2019 11:00:00 7,4 4,1 0,0
17.04.2019 10:00:00 6,9 4,9 0,0
17.04.2019 09:00:00 5,7 5,1 0,0
17.04.2019 08:00:00 4,8 4,6 0,0
17.04.2019 07:00:00 4,1 4,0 0,0
17.04.2019 06:00:00 3,9 3,7 0,0
17.04.2019 05:00:00 4,3 4,1 0,0
17.04.2019 04:00:00 4,7 4,5 0,0
17.04.2019 03:00:00 5,1 4,8 0,0
17.04.2019 02:00:00 5,4 5,1 0,2
17.04.2019 01:00:00 5,6 5,0 0,6
17.04.2019 00:00:00 6,0 4,9 1,0
16.04.2019 23:00:00 7,7 3,7 0,6
16.04.2019 22:00:00 8,6 2,7 0,0
16.04.2019 21:00:00 8,7 3,0 0,6
16.04.2019 20:00:00 8,3 3,8 0,4
16.04.2019 19:00:00 10,1 2,6 0,0
16.04.2019 18:00:00 10,6 2,4 0,0
16.04.2019 17:00:00 10,7 3,6 0,0
16.04.2019 16:00:00 11,2 3,0 0,0
16.04.2019 15:00:00 10,8 3,1 0,0
16.04.2019 14:00:00 10,6 3,3 0,0
16.04.2019 13:00:00 10,6 3,9 0,0
16.04.2019 12:00:00 10,5 4,7 0,0
16.04.2019 11:00:00 9,4 4,7 0,0
16.04.2019 10:00:00 8,9 4,1 0,0
16.04.2019 09:00:00 8,1 3,4 0,0
16.04.2019 08:00:00 8,1 3,8 0,0
16.04.2019 07:00:00 8,2 3,7 0,0
16.04.2019 06:00:00 8,3 2,8 0,0
16.04.2019 05:00:00 8,1 2,6 0,0
16.04.2019 04:00:00 8,2 2,7 0,0
16.04.2019 03:00:00 8,3 2,4 0,0
16.04.2019 02:00:00 8,7 1,8 0,0
16.04.2019 01:00:00 8,4 2,2 0,0
16.04.2019 00:00:00 8,0 2,2 0,0
15.04.2019 23:00:00 8,1 2,2 0,0
15.04.2019 22:00:00 8,4 1,6 0,0
15.04.2019 21:00:00 8,5 1,5 0,0
15.04.2019 20:00:00 8,9 1,1 0,0
15.04.2019 19:00:00 9,3 1,7 0,0
15.04.2019 18:00:00 9,5 0,9 0,0
15.04.2019 17:00:00 10,0 0,6 0,0
15.04.2019 16:00:00 10,3 -1,0 0,0
15.04.2019 15:00:00 11,2 -1,9 0,0
15.04.2019 14:00:00 11,0 -2,2 0,0
15.04.2019 13:00:00 9,6 -1,2 0,0
15.04.2019 12:00:00 8,9 -1,1 0,0
15.04.2019 11:00:00 8,3 -0,6 0,0
15.04.2019 10:00:00 6,6 -1,6 0,0
15.04.2019 09:00:00 5,5 -1,7 0,0
15.04.2019 08:00:00 5,1 -2,3 0,0

tt = Temperatura
td = dewpoint
rr = precipitazioni

Stazioni seguenti

WeatherPro
AMSI
MeteoEarth